Zurück zum Katalog

CZ-6A DEB

AktivPO
NORAD 60703·DEBRIS·🇨🇳 China

Gestartet Aug 6, 2024 von Taiyuan Satellite Launch Center

Loading…

Nächste Überflüge (nächste 24 Stunden)

TLE

AktuellSource: Space-Track

Epoche: Sep 14, 2026, 08:55 UTC

1 60703U 24140DG  26257.37159966  .00000187  00000-0  65771-4 0  9991
2 60703  89.4080 300.8198 0111436 143.9532 216.9244 14.27510853108765

Verfolge CZ-6A DEB in Echtzeit mit AllMySat

Download on the App Store